TimeEST,TemperatureF,Dew PointF,Humidity,Sea Level PressureIn,VisibilityMPH,Wind Direction,Wind SpeedMPH,Gust SpeedMPH,PrecipitationIn,Events,Conditions,WindDirDegrees,DateUTC
12:15 AM,30.4,21.4,69,29.95,10.0,Calm,Calm,-,N/A,,Clear,0,2013-03-04 05:15:00
12:35 AM,29.1,21.4,73,29.95,10.0,Calm,Calm,-,N/A,,Clear,0,2013-03-04 05:35:00
12:55 AM,28.2,21.9,77,29.96,10.0,Calm,Calm,-,N/A,,Clear,0,2013-03-04 05:55:00
1:15 AM,28.2,22.5,79,29.95,10.0,Calm,Calm,-,N/A,,Clear,0,2013-03-04 06:15:00
1:35 AM,27.1,21.9,81,29.96,10.0,Calm,Calm,-,N/A,,Clear,0,2013-03-04 06:35:00
1:55 AM,28.8,21.7,75,29.96,10.0,Calm,Calm,-,N/A,,Clear,0,2013-03-04 06:55:00
2:15 AM,29.3,21.2,72,29.96,10.0,Calm,Calm,-,N/A,,Clear,0,2013-03-04 07:15:00
2:55 AM,29.3,20.5,70,29.96,10.0,NW,3.5,-,N/A,,Clear,320,2013-03-04 07:55:00
3:15 AM,29.3,20.3,69,29.96,10.0,Calm,Calm,-,N/A,,Clear,0,2013-03-04 08:15:00
3:35 AM,29.3,20.1,69,29.96,10.0,NW,3.5,-,N/A,,Clear,320,2013-03-04 08:35:00
3:55 AM,29.3,19.9,68,29.97,10.0,NW,4.6,-,N/A,,Clear,310,2013-03-04 08:55:00
4:15 AM,29.3,19.9,68,29.97,10.0,NW,4.6,-,N/A,,Clear,310,2013-03-04 09:15:00
4:35 AM,29.3,19.4,67,29.98,10.0,WNW,4.6,-,N/A,,Clear,300,2013-03-04 09:35:00
4:55 AM,28.9,19.4,68,29.99,10.0,WNW,6.9,-,N/A,,Clear,300,2013-03-04 09:55:00
5:15 AM,29.3,20.5,70,29.99,10.0,WNW,5.8,-,N/A,,Clear,300,2013-03-04 10:15:00
5:35 AM,29.1,20.3,70,30.00,10.0,WNW,8.1,-,N/A,,Clear,290,2013-03-04 10:35:00
5:55 AM,29.1,20.3,70,30.01,10.0,WNW,8.1,-,N/A,,Clear,290,2013-03-04 10:55:00
6:15 AM,28.8,19.6,69,30.01,10.0,WNW,5.8,-,N/A,,Clear,300,2013-03-04 11:15:00
6:35 AM,28.4,19.4,69,30.02,10.0,WNW,5.8,-,N/A,,Clear,300,2013-03-04 11:35:00
6:55 AM,29.1,19.6,68,30.03,10.0,WNW,6.9,-,N/A,,Clear,290,2013-03-04 11:55:00
7:15 AM,29.1,19.8,68,30.04,10.0,WNW,4.6,-,N/A,,Clear,300,2013-03-04 12:15:00
7:35 AM,30.0,19.4,65,30.04,10.0,WNW,6.9,-,N/A,,Clear,300,2013-03-04 12:35:00
7:55 AM,30.9,19.4,62,30.05,10.0,WNW,6.9,-,N/A,,Clear,300,2013-03-04 12:55:00
8:15 AM,32.0,19.6,60,30.06,10.0,WNW,6.9,-,N/A,,Clear,290,2013-03-04 13:15:00
8:55 AM,33.4,18.3,54,30.06,10.0,NW,8.1,-,N/A,,Clear,320,2013-03-04 13:55:00
9:15 AM,34.5,17.6,50,30.06,10.0,NW,11.5,21.9,N/A,,Clear,310,2013-03-04 14:15:00
9:35 AM,34.7,17.2,49,30.06,10.0,NW,10.4,19.6,N/A,,Clear,320,2013-03-04 14:35:00
9:55 AM,35.8,17.6,48,30.05,10.0,WNW,15.0,19.6,N/A,,Clear,290,2013-03-04 14:55:00
10:15 AM,37.4,17.8,45,30.04,10.0,WNW,11.5,20.7,N/A,,Clear,300,2013-03-04 15:15:00
10:35 AM,37.8,17.1,43,30.05,10.0,WNW,13.8,19.6,N/A,,Clear,290,2013-03-04 15:35:00
10:55 AM,38.1,16.5,42,30.05,10.0,NW,11.5,21.9,N/A,,Clear,310,2013-03-04 15:55:00
11:15 AM,39.0,17.1,41,30.04,10.0,West,15.0,21.9,N/A,,Clear,260,2013-03-04 16:15:00
11:35 AM,39.6,18.7,43,30.04,10.0,West,12.7,20.7,N/A,,Clear,260,2013-03-04 16:35:00
11:55 AM,40.5,18.5,41,30.03,10.0,West,13.8,20.7,N/A,,Clear,270,2013-03-04 16:55:00
12:15 PM,40.5,18.0,40,30.03,10.0,West,11.5,23.0,N/A,,Clear,270,2013-03-04 17:15:00
12:35 PM,41.9,19.2,40,30.02,10.0,West,16.1,21.9,N/A,,Clear,260,2013-03-04 17:35:00
12:55 PM,42.4,18.7,39,30.01,10.0,West,11.5,23.0,N/A,,Clear,270,2013-03-04 17:55:00
1:15 PM,43.2,19.6,39,29.99,10.0,West,17.3,20.7,N/A,,Clear,270,2013-03-04 18:15:00
1:55 PM,44.6,19.2,36,29.98,10.0,West,15.0,20.7,N/A,,Clear,270,2013-03-04 18:55:00
2:15 PM,46.2,19.8,35,29.98,10.0,West,15.0,18.4,N/A,,Clear,270,2013-03-04 19:15:00
2:35 PM,46.2,19.9,35,29.98,10.0,West,15.0,18.4,N/A,,Clear,260,2013-03-04 19:35:00
2:55 PM,46.9,20.3,35,29.97,10.0,West,13.8,19.6,N/A,,Clear,280,2013-03-04 19:55:00
3:15 PM,46.8,19.4,34,29.97,10.0,West,15.0,20.7,N/A,,Clear,280,2013-03-04 20:15:00
3:35 PM,47.7,19.4,33,29.97,10.0,West,9.2,17.3,N/A,,Clear,280,2013-03-04 20:35:00
3:55 PM,47.5,19.6,33,29.96,10.0,West,10.4,20.7,N/A,,Clear,270,2013-03-04 20:55:00
4:15 PM,47.5,19.6,33,29.96,10.0,West,12.7,17.3,N/A,,Clear,270,2013-03-04 21:15:00
4:35 PM,47.3,19.6,33,29.97,10.0,WNW,9.2,16.1,N/A,,Clear,290,2013-03-04 21:35:00
4:55 PM,47.1,19.9,34,29.97,10.0,West,11.5,-,N/A,,Clear,270,2013-03-04 21:55:00
5:15 PM,46.8,20.5,35,29.97,10.0,West,9.2,-,N/A,,Clear,280,2013-03-04 22:15:00
5:35 PM,46.0,20.1,36,29.98,10.0,WNW,6.9,-,N/A,,Clear,290,2013-03-04 22:35:00
5:55 PM,45.0,19.9,37,29.98,10.0,West,8.1,-,N/A,,Clear,280,2013-03-04 22:55:00
6:15 PM,43.9,21.0,40,29.99,10.0,WNW,4.6,-,N/A,,Clear,290,2013-03-04 23:15:00
6:35 PM,42.8,21.9,44,30.00,10.0,WNW,3.5,-,N/A,,Clear,290,2013-03-04 23:35:00
6:55 PM,37.9,24.6,59,30.01,10.0,Calm,Calm,-,N/A,,Clear,0,2013-03-04 23:55:00
7:15 PM,36.0,24.6,63,30.02,10.0,Calm,Calm,-,N/A,,Clear,0,2013-03-05 00:15:00
7:35 PM,33.4,23.9,68,30.02,10.0,Calm,Calm,-,N/A,,Clear,0,2013-03-05 00:35:00
7:55 PM,33.3,25.2,72,30.03,10.0,Calm,Calm,-,N/A,,Clear,0,2013-03-05 00:55:00
8:15 PM,31.3,24.1,75,30.03,10.0,Calm,Calm,-,N/A,,Clear,0,2013-03-05 01:15:00
8:35 PM,30.9,25.2,79,30.03,10.0,Calm,Calm,-,N/A,,Clear,0,2013-03-05 01:35:00
8:55 PM,28.8,22.6,78,30.04,10.0,Calm,Calm,-,N/A,,Clear,0,2013-03-05 01:55:00
9:35 PM,28.2,22.6,80,30.06,10.0,Calm,Calm,-,N/A,,Clear,0,2013-03-05 02:35:00
9:55 PM,28.4,23.2,81,30.06,10.0,Calm,Calm,-,N/A,,Clear,0,2013-03-05 02:55:00
10:15 PM,27.7,23.5,84,30.06,10.0,Calm,Calm,-,N/A,,Clear,0,2013-03-05 03:15:00
10:35 PM,27.9,23.0,82,30.06,10.0,Calm,Calm,-,N/A,,Clear,0,2013-03-05 03:35:00
10:55 PM,29.1,24.3,82,30.07,10.0,Calm,Calm,-,N/A,,Clear,0,2013-03-05 03:55:00
11:15 PM,27.3,24.3,88,30.07,10.0,Calm,Calm,-,N/A,,Clear,0,2013-03-05 04:15:00
11:35 PM,25.9,22.1,86,30.07,10.0,Calm,Calm,-,N/A,,Clear,0,2013-03-05 04:35:00
11:55 PM,27.7,23.0,83,30.08,10.0,Calm,Calm,-,N/A,,Clear,0,2013-03-05 04:55:00